TOM7321 EGBB-LIPZ

Flight info

Callsign TOM7321
Flight time N/A
Altitude 35000
Route ADMEX Y321 EMKUK UL612 VEULE DCT TEPRI UN491 POGZI DCT GELTA DCT LUVAL DCT SHARA DCT DEVDI DCT RIPUS DCT RESIA DCT ADOSA/N0398F190 L612 ALBET
Aircraft A320/M-SDE3FGHIRWY/LB1

Departure

Time N/A
Airport Birmingham Airport (EGBB)

Arrival

Time 2026-04-27 18:39
Airport Venice Marco Polo Airport (LIPZ)
Time Latitude Longitude Altitude Speed Heading
2026-04-27 17:24 48.91522 2.17475 35182 ft 472 kts 138°
2026-04-27 17:24 48.89259 2.21099 35179 ft 472 kts 138°
2026-04-27 17:25 48.84735 2.28330 35182 ft 472 kts 138°
2026-04-27 17:25 48.80198 2.35566 35182 ft 473 kts 138°
2026-04-27 17:26 48.75656 2.42783 35181 ft 473 kts 139°
2026-04-27 17:26 48.71112 2.49973 35181 ft 473 kts 139°
2026-04-27 17:27 48.66590 2.57119 35152 ft 472 kts 139°
2026-04-27 17:27 48.62037 2.64292 35132 ft 473 kts 139°
2026-04-27 17:28 48.57821 2.71987 35133 ft 482 kts 125°
2026-04-27 17:28 48.55296 2.81453 35138 ft 493 kts 104°
2026-04-27 17:29 48.54849 2.86531 35135 ft 496 kts 95°
2026-04-27 17:29 48.54529 2.96958 35133 ft 497 kts 95°
2026-04-27 17:30 48.54162 3.07388 35130 ft 498 kts 95°
2026-04-27 17:30 48.53591 3.23081 35127 ft 500 kts 95°
2026-04-27 17:31 48.53213 3.33576 35132 ft 501 kts 95°
2026-04-27 17:31 48.52829 3.43998 35136 ft 501 kts 95°
2026-04-27 17:32 48.52222 3.59782 35131 ft 502 kts 95°
2026-04-27 17:33 48.51810 3.70300 35127 ft 503 kts 95°
2026-04-27 17:33 48.51385 3.80832 35133 ft 503 kts 95°
2026-04-27 17:34 48.50949 3.91315 35139 ft 503 kts 95°
2026-04-27 17:34 48.50392 4.01833 35137 ft 501 kts 102°
2026-04-27 17:35 48.48711 4.11995 35137 ft 498 kts 108°
2026-04-27 17:35 48.46870 4.22066 35137 ft 499 kts 108°
2026-04-27 17:36 48.45028 4.32135 35134 ft 499 kts 108°
2026-04-27 17:36 48.43173 4.42220 35123 ft 499 kts 108°
2026-04-27 17:37 48.41304 4.52309 35125 ft 500 kts 108°
2026-04-27 17:37 48.39438 4.62336 35132 ft 501 kts 108°
2026-04-27 17:38 48.37547 4.72438 35133 ft 501 kts 108°
2026-04-27 17:38 48.35648 4.82529 35127 ft 501 kts 108°
2026-04-27 17:39 48.33739 4.92605 35126 ft 501 kts 108°
2026-04-27 17:39 48.31830 5.02610 35117 ft 500 kts 108°
2026-04-27 17:40 48.29907 5.12662 35125 ft 500 kts 108°
2026-04-27 17:40 48.27952 5.22694 35126 ft 499 kts 109°
2026-04-27 17:41 48.25942 5.32691 35136 ft 499 kts 109°
2026-04-27 17:41 48.23915 5.42596 35128 ft 499 kts 109°
2026-04-27 17:42 48.21882 5.52565 35127 ft 499 kts 109°
2026-04-27 17:42 48.19856 5.62534 35131 ft 499 kts 109°
2026-04-27 17:43 48.17827 5.72483 35131 ft 498 kts 109°
2026-04-27 17:43 48.15797 5.82329 35130 ft 498 kts 109°
2026-04-27 17:44 48.13739 5.92232 35130 ft 497 kts 109°
2026-04-27 17:44 48.11680 6.02142 35129 ft 497 kts 109°
2026-04-27 17:45 48.09630 6.11959 35130 ft 497 kts 109°
2026-04-27 17:45 48.07558 6.21831 35122 ft 497 kts 109°
2026-04-27 17:46 48.05477 6.31687 35122 ft 496 kts 109°
2026-04-27 17:46 48.03398 6.41462 35125 ft 496 kts 109°
2026-04-27 17:47 48.01305 6.51287 35121 ft 495 kts 109°
2026-04-27 17:47 47.99200 6.61088 35115 ft 495 kts 109°
2026-04-27 17:48 47.97047 6.70847 35114 ft 494 kts 111°
2026-04-27 17:48 47.94555 6.80336 35119 ft 494 kts 115°
2026-04-27 17:49 47.91860 6.89752 35117 ft 494 kts 115°
2026-04-27 17:49 47.90519 6.94473 35114 ft 494 kts 115°
2026-04-27 17:50 47.89766 6.97210 35102 ft 494 kts 113°
2026-04-27 17:50 47.85929 7.11427 35112 ft 494 kts 114°
2026-04-27 17:51 47.83308 7.20888 35112 ft 494 kts 114°
2026-04-27 17:51 47.80676 7.30344 35104 ft 494 kts 114°
2026-04-27 17:52 47.78062 7.39788 35099 ft 494 kts 114°
2026-04-27 17:52 47.75886 7.47630 35097 ft 493 kts 114°
2026-04-27 17:53 47.72254 7.58116 35100 ft 488 kts 129°
2026-04-27 17:53 47.68217 7.66223 35092 ft 488 kts 129°
2026-04-27 17:54 47.64181 7.74344 35093 ft 488 kts 129°
2026-04-27 17:54 47.60171 7.82404 35091 ft 488 kts 129°
2026-04-27 17:55 47.56134 7.90498 35095 ft 488 kts 129°
2026-04-27 17:55 47.52071 7.98600 35077 ft 488 kts 129°
2026-04-27 17:56 47.48015 8.06664 35089 ft 488 kts 129°
2026-04-27 17:56 47.43995 8.14645 35093 ft 487 kts 129°
2026-04-27 17:57 47.39935 8.22675 35091 ft 487 kts 129°
2026-04-27 17:57 47.35874 8.30693 35093 ft 487 kts 129°
2026-04-27 17:58 47.31805 8.38683 35098 ft 488 kts 129°
2026-04-27 17:58 47.27722 8.46671 35101 ft 488 kts 129°
2026-04-27 17:59 47.23649 8.54688 35105 ft 488 kts 128°
2026-04-27 17:59 47.19662 8.62776 35109 ft 488 kts 127°
2026-04-27 18:00 47.15715 8.70840 35108 ft 488 kts 127°
2026-04-27 18:00 47.11724 8.78921 35110 ft 489 kts 128°
2026-04-27 18:01 47.07710 8.86969 35111 ft 489 kts 128°
2026-04-27 18:01 47.03673 8.95021 35117 ft 489 kts 128°
2026-04-27 18:02 46.99636 9.03054 35104 ft 488 kts 127°
2026-04-27 18:02 46.95611 9.11072 35119 ft 489 kts 127°
2026-04-27 18:03 46.91603 9.19026 35116 ft 488 kts 128°
2026-04-27 18:03 46.87562 9.27005 35113 ft 488 kts 128°
2026-04-27 18:04 46.83516 9.34977 35111 ft 488 kts 128°
2026-04-27 18:04 46.79455 9.42966 35113 ft 488 kts 127°
2026-04-27 18:05 46.75404 9.50907 35118 ft 488 kts 127°
2026-04-27 18:05 46.71363 9.58787 35130 ft 488 kts 127°
2026-04-27 18:06 46.67293 9.66707 35156 ft 488 kts 127°
2026-04-27 18:06 46.63233 9.74623 35165 ft 488 kts 127°
2026-04-27 18:07 46.59154 9.82537 35184 ft 488 kts 127°
2026-04-27 18:07 46.55105 9.90357 35172 ft 487 kts 127°
2026-04-27 18:08 46.51009 9.98222 35174 ft 488 kts 127°
2026-04-27 18:08 46.46636 10.05712 35175 ft 486 kts 139°
2026-04-27 18:09 46.41465 10.11991 35156 ft 484 kts 141°
2026-04-27 18:09 46.36269 10.18204 35127 ft 483 kts 141°
2026-04-27 18:10 46.31960 10.23356 35119 ft 483 kts 141°
2026-04-27 18:10 46.26747 10.29576 35120 ft 483 kts 141°
2026-04-27 18:11 46.21597 10.35702 35117 ft 483 kts 142°
2026-04-27 18:11 46.16410 10.41843 35118 ft 482 kts 142°
2026-04-27 18:12 46.11227 10.47976 35111 ft 482 kts 142°
2026-04-27 18:12 46.06038 10.54105 35108 ft 482 kts 142°
2026-04-27 18:13 46.00852 10.60213 35105 ft 479 kts 142°
2026-04-27 18:13 45.95774 10.66169 35061 ft 468 kts 142°
2026-04-27 18:14 45.93231 10.69141 34264 ft 474 kts 142°
2026-04-27 18:14 45.90657 10.72155 33374 ft 478 kts 141°
2026-04-27 18:14 45.88075 10.75183 32494 ft 481 kts 141°
2026-04-27 18:14 45.85483 10.78217 31646 ft 482 kts 141°
2026-04-27 18:15 45.82910 10.81222 30841 ft 483 kts 141°
2026-04-27 18:15 45.80301 10.84268 29978 ft 484 kts 141°
2026-04-27 18:15 45.77686 10.87311 28970 ft 486 kts 141°
2026-04-27 18:15 45.75050 10.90367 27934 ft 487 kts 141°
2026-04-27 18:16 45.72412 10.93422 26897 ft 489 kts 141°
2026-04-27 18:16 45.69764 10.96484 25814 ft 490 kts 141°
2026-04-27 18:16 45.67106 10.99557 24707 ft 492 kts 141°
2026-04-27 18:16 45.64634 11.02927 23913 ft 488 kts 131°
2026-04-27 18:17 45.62598 11.06768 23052 ft 483 kts 123°
2026-04-27 18:17 45.60793 11.10784 22181 ft 477 kts 122°
2026-04-27 18:17 45.59011 11.14740 21378 ft 471 kts 123°
2026-04-27 18:17 45.57249 11.18646 20599 ft 465 kts 123°
2026-04-27 18:18 45.55509 11.22507 19847 ft 460 kts 122°
2026-04-27 18:18 45.53790 11.26324 19122 ft 454 kts 122°
2026-04-27 18:18 45.52094 11.30089 18402 ft 449 kts 122°
2026-04-27 18:18 45.50431 11.33774 18142 ft 433 kts 122°
2026-04-27 18:19 45.48831 11.37314 17985 ft 418 kts 122°
2026-04-27 18:19 45.47302 11.40693 17866 ft 404 kts 123°
2026-04-27 18:19 45.45799 11.44004 17733 ft 390 kts 123°
2026-04-27 18:19 45.44355 11.47185 17592 ft 376 kts 123°
2026-04-27 18:20 45.42952 11.50257 17379 ft 366 kts 125°
2026-04-27 18:20 45.41338 11.53030 16995 ft 362 kts 132°
2026-04-27 18:20 45.39667 11.55681 16568 ft 359 kts 132°
2026-04-27 18:20 45.38004 11.58310 16147 ft 356 kts 132°
2026-04-27 18:21 45.36381 11.60940 15745 ft 353 kts 127°
2026-04-27 18:21 45.35168 11.63943 15347 ft 349 kts 111°
2026-04-27 18:21 45.34558 11.67256 14961 ft 345 kts 95°
2026-04-27 18:21 45.34547 11.70639 14550 ft 342 kts 85°
2026-04-27 18:22 45.34710 11.74012 14130 ft 341 kts 85°
2026-04-27 18:22 45.34865 11.77357 13821 ft 336 kts 85°
2026-04-27 18:22 45.34947 11.80622 13685 ft 326 kts 94°
2026-04-27 18:22 45.34491 11.83716 13512 ft 318 kts 110°
2026-04-27 18:23 45.33477 11.86426 13209 ft 314 kts 127°
2026-04-27 18:23 45.32051 11.88729 13014 ft 306 kts 136°
2026-04-27 18:23 45.30294 11.90272 12885 ft 293 kts 167°
2026-04-27 18:23 45.28324 11.90320 12680 ft 281 kts 198°
2026-04-27 18:24 45.26658 11.88986 12367 ft 274 kts 223°
2026-04-27 18:24 45.25227 11.87183 12018 ft 275 kts 223°
2026-04-27 18:24 45.23808 11.85378 11694 ft 274 kts 223°
2026-04-27 18:24 45.22388 11.83574 11379 ft 273 kts 223°
2026-04-27 18:25 45.20966 11.81778 11079 ft 273 kts 223°
2026-04-27 18:25 45.19548 11.79997 10778 ft 272 kts 223°
2026-04-27 18:25 45.18134 11.78226 10485 ft 271 kts 222°
2026-04-27 18:25 45.16727 11.76463 10191 ft 270 kts 222°
2026-04-27 18:26 45.15323 11.74703 9918 ft 268 kts 222°
2026-04-27 18:26 45.13930 11.72959 9635 ft 266 kts 223°
2026-04-27 18:26 45.12469 11.71377 9412 ft 262 kts 205°
2026-04-27 18:26 45.10721 11.70980 9279 ft 255 kts 170°
2026-04-27 18:27 45.09164 11.72008 9110 ft 247 kts 137°
2026-04-27 18:27 45.07993 11.73778 8794 ft 246 kts 132°
2026-04-27 18:27 45.06953 11.75691 8465 ft 245 kts 114°
2026-04-27 18:27 45.06650 11.78017 8144 ft 242 kts 81°
2026-04-27 18:28 45.07234 11.80169 7807 ft 238 kts 49°
2026-04-27 18:28 45.08418 11.81788 7428 ft 238 kts 39°
2026-04-27 18:28 45.09667 11.83342 7085 ft 239 kts 39°
2026-04-27 18:28 45.10910 11.84893 6869 ft 235 kts 40°
2026-04-27 18:29 45.12105 11.86390 6738 ft 224 kts 39°
2026-04-27 18:29 45.13255 11.87835 6536 ft 219 kts 40°
2026-04-27 18:29 45.14390 11.89261 6259 ft 216 kts 40°
2026-04-27 18:29 45.15512 11.90667 5969 ft 214 kts 39°
2026-04-27 18:30 45.16626 11.92065 5661 ft 213 kts 39°
2026-04-27 18:30 45.17732 11.93457 5356 ft 212 kts 39°
2026-04-27 18:30 45.18831 11.94842 5058 ft 210 kts 40°
2026-04-27 18:30 45.19923 11.96218 4755 ft 210 kts 39°
2026-04-27 18:31 45.21012 11.97588 4437 ft 209 kts 39°
2026-04-27 18:31 45.22107 11.98949 4132 ft 208 kts 40°
2026-04-27 18:31 45.23183 12.00303 3990 ft 207 kts 40°
2026-04-27 18:31 45.24245 12.01647 3991 ft 208 kts 40°
2026-04-27 18:32 45.25329 12.03021 3990 ft 209 kts 40°
2026-04-27 18:32 45.26411 12.04396 3989 ft 208 kts 40°
2026-04-27 18:32 45.27483 12.05757 3990 ft 206 kts 40°
2026-04-27 18:32 45.28547 12.07109 3991 ft 205 kts 40°
2026-04-27 18:33 45.29611 12.08462 3994 ft 205 kts 40°
2026-04-27 18:33 45.30678 12.09819 3994 ft 205 kts 40°
2026-04-27 18:33 45.31741 12.11172 3993 ft 205 kts 40°
2026-04-27 18:33 45.32791 12.12510 3993 ft 205 kts 40°
2026-04-27 18:34 45.33857 12.13868 3944 ft 206 kts 40°
2026-04-27 18:34 45.34920 12.15223 3744 ft 205 kts 40°
2026-04-27 18:34 45.35974 12.16567 3490 ft 203 kts 40°
2026-04-27 18:34 45.37023 12.17906 3228 ft 201 kts 40°
2026-04-27 18:35 45.38063 12.19235 2974 ft 200 kts 41°
2026-04-27 18:35 45.39092 12.20549 2728 ft 196 kts 41°
2026-04-27 18:35 45.40098 12.21835 2462 ft 193 kts 41°
2026-04-27 18:35 45.41092 12.23105 2202 ft 190 kts 41°
2026-04-27 18:36 45.42062 12.24347 1947 ft 182 kts 42°
2026-04-27 18:36 45.42958 12.25494 1713 ft 164 kts 42°
2026-04-27 18:36 45.43774 12.26539 1508 ft 157 kts 43°
2026-04-27 18:36 45.44571 12.27560 1338 ft 150 kts 43°
2026-04-27 18:37 45.45336 12.28539 1117 ft 146 kts 43°
2026-04-27 18:37 45.46088 12.29503 926 ft 144 kts 44°
2026-04-27 18:37 45.46833 12.30458 735 ft 144 kts 43°
2026-04-27 18:37 45.47590 12.31413 542 ft 145 kts 43°
2026-04-27 18:38 45.48336 12.32365 361 ft 143 kts 45°
2026-04-27 18:38 45.49063 12.33321 174 ft 142 kts 44°
2026-04-27 18:38 45.49795 12.34260 18 ft 135 kts 43°
2026-04-27 18:38 45.50390 12.35037 13 ft 93 kts 42°
2026-04-27 18:39 45.50717 12.35443 15 ft 41 kts 41°
2026-04-27 18:39 45.50922 12.35717 15 ft 40 kts 43°
2026-04-27 18:39 45.51164 12.35883 14 ft 39 kts
2026-04-27 18:39 45.51272 12.35851 14 ft 6 kts 272°
2026-04-27 18:40 45.51231 12.35758 14 ft 18 kts 223°
2026-04-27 18:40 45.51137 12.35634 16 ft 19 kts 222°
2026-04-27 18:40 45.51030 12.35499 17 ft 21 kts 223°
2026-04-27 18:40 45.50976 12.35306 18 ft 23 kts 258°
2026-04-27 18:41 45.50888 12.35113 16 ft 25 kts 223°
2026-04-27 18:41 45.50754 12.34940 16 ft 27 kts 220°
2026-04-27 18:41 45.50619 12.34758 15 ft 26 kts 241°
2026-04-27 18:41 45.50600 12.34497 16 ft 28 kts 268°
2026-04-27 18:42 45.50593 12.34391 16 ft 5 kts 245°
2026-04-27 18:42 45.50580 12.34360 16 ft 8 kts 236°
2026-04-27 18:42 45.50553 12.34246 16 ft 11 kts 265°
2026-04-27 18:42 45.50552 12.34220 16 ft 0 kts 266°